Wind_Speed
22 22 23 24 26 28 30 31 32 33 34 35 37 38 41 43 45 48 50 52 53 54 55 56 57 57 59 61 62 65 68 71 73 76 78 82 85 87 86 85 84 83 83
24 25 26 27 29 31 33 34 35 36 38 39 40 41 43 46 48 51 53 54 56 57 58 58 59 59 61 62 64 66 70 73 77 79 82 83 84 85 83 80 79 78 78
27 27 28 30 32 34 36 37 38 40 41 42 43 45 47 49 51 54 56 57 58 59 60 61 61 62 63 64 65 68 71 75 79 82 85 87 87 86 80 75 73 73 72
29 30 31 33 35 37 38 40 41 42 44 45 47 48 50 52 54 56 58 60 60 61 62 62 63 64 65 65 67 70 73 76 80 83 86 87 88 87 83 73 69 68 68
31 32 34 36 38 40 41 43 44 45 46 48 49 51 53 55 57 59 60 62 62 62 63 64 65 65 66 66 68 71 75 78 81 83 84 85 85 85 84 76 67 63 63
33 34 37 39 40 43 44 45 47 47 49 50 52 54 56 57 59 61 63 63 63 63 64 65 66 66 66 67 69 73 76 79 81 83 83 83 82 81 80 76 69 63 59
36 38 40 42 43 45 47 48 49 50 52 53 55 56 58 60 61 63 64 64 64 64 65 66 67 67 67 68 71 74 77 80 81 81 81 80 80 79 77 75 70 64 58
40 42 44 46 47 48 49 50 51 53 54 55 57 59 60 62 63 65 65 65 65 65 66 66 67 67 67 69 72 75 78 80 80 79 78 77 77 76 75 73 70 65 58
43 46 48 50 51 52 52 52 54 55 56 57 59 60 61 63 64 65 65 65 66 66 67 66 67 68 68 70 73 75 78 79 78 77 76 75 74 73 72 70 68 66 61
45 48 51 53 54 54 55 55 56 57 58 59 60 61 62 64 65 66 66 66 66 66 67 67 68 68 69 71 73 75 77 78 77 75 74 72 72 70 69 67 65 63 61
47 49 51 53 55 55 56 56 57 57 58 59 61 62 63 64 66 66 67 67 67 67 67 67 67 68 69 71 73 74 76 76 74 73 72 70 70 68 67 65 63 61 59
47 48 49 50 52 53 54 55 56 57 58 59 61 62 64 65 66 67 67 68 68 67 67 67 67 67 69 70 71 73 74 74 73 71 70 68 68 66 65 63 61 59 57
49 49 50 51 51 52 53 54 55 56 58 59 61 63 65 66 67 67 67 68 68 67 67 67 67 67 67 69 71 72 72 72 71 69 68 67 66 64 63 61 60 57 54
51 51 52 52 53 53 54 54 55 57 58 60 62 64 66 67 67 67 67 67 66 66 66 65 65 65 66 68 70 70 70 70 69 67 66 65 64 63 61 59 58 55 52
54 54 53 53 54 54 54 55 56 58 60 62 63 65 66 67 68 67 66 65 64 64 63 63 63 63 64 67 68 68 68 68 67 65 64 63 63 61 60 59 58 55 51
56 56 55 55 55 56 57 58 59 61 62 63 64 66 67 67 67 66 64 64 63 62 61 61 61 62 63 65 66 66 66 66 65 63 62 61 61 60 58 57 57 54 51
58 57 57 58 58 59 60 61 62 63 63 64 65 65 65 65 64 63 62 61 61 59 58 58 59 60 61 63 64 63 64 64 63 62 61 59 59 58 56 55 54 51 49
60 61 61 61 61 62 63 63 63 63 63 63 63 63 63 61 61 60 59 58 57 55 55 56 57 57 58 60 60 60 61 61 61 60 59 58 56 56 55 53 52 50 47
63 64 65 64 63 63 63 62 62 61 62 61 60 60 59 58 57 56 54 53 52 52 52 53 54 55 57 58 58 58 59 59 58 57 57 56 55 54 53 52 51 48 44
64 64 63 62 62 61 61 60 59 59 58 57 55 55 54 54 52 51 49 49 49 50 50 50 52 53 54 55 56 56 57 57 55 54 54 54 53 53 52 51 51 47 43
60 60 60 59 59 58 57 55 54 54 53 51 51 50 50 49 48 47 46 46 47 47 47 48 49 51 52 53 53 54 55 55 53 52 52 51 51 51 50 49 49 47 42
57 56 55 54 53 53 52 50 50 50 49 49 49 49 48 47 45 44 44 45 44 44 45 46 48 49 50 51 51 52 53 53 51 50 50 49 49 49 48 47 47 45 40
51 50 50 49 48 48 48 48 48 49 47 47 48 47 45 45 44 43 43 43 43 44 45 46 47 48 48 49 49 49 51 51 50 49 48 48 47 47 46 45 45 42 39
48 48 47 46 45 45 46 47 47 47 47 46 45 45 45 45 45 44 44 44 43 44 45 45 45 46 47 47 47 48 49 49 48 47 47 46 46 45 45 44 44 41 37
47 47 45 44 45 45 46 48 48 48 47 47 47 47 46 46 47 47 46 45 45 45 44 44 44 45 45 45 45 46 47 47 45 45 45 44 44 43 43 43 42 39 35
47 46 46 46 47 48 49 50 49 49 49 49 49 49 49 49 50 49 48 47 47 46 44 43 43 43 43 44 43 44 45 44 43 42 42 42 42 41 40 40 39 37 33
Wind_Direction
285 288 290 294 297 300 303 306 309 312 315 317 319 320 321 322 323 324 325 325 325 324 323 321 320 319 318 317 317 318 319 320 321 322 322 322 321 320 320 318 316 314 312
284 287 290 293 296 299 302 305 307 309 312 314 316 317 317 319 320 322 322 322 323 323 322 321 320 319 318 318 318 319 321 322 323 323 323 323 322 322 322 321 318 316 315
283 286 289 292 295 297 300 303 305 307 309 311 314 315 316 317 318 320 320 321 321 321 321 320 319 318 318 318 319 321 323 324 324 324 324 324 324 325 326 323 320 318 317
283 286 288 290 293 296 298 301 303 305 306 309 311 312 314 315 316 318 318 319 319 320 320 319 318 317 318 319 320 322 324 325 325 325 325 325 325 326 328 327 323 321 319
282 285 287 289 291 293 296 298 300 302 304 306 308 310 311 313 315 316 317 318 318 318 318 318 318 317 318 320 322 323 324 325 325 325 325 326 326 326 327 329 327 324 322
280 282 284 286 288 290 293 295 297 299 301 303 305 308 310 312 313 315 316 317 317 318 318 317 317 318 319 321 323 324 324 325 325 325 326 326 326 327 327 328 328 328 326
277 279 281 283 285 287 290 293 295 298 299 301 304 306 308 310 312 314 315 316 316 317 317 317 318 319 320 322 323 324 324 325 325 326 326 327 327 327 327 328 328 329 329
276 277 278 281 283 286 289 291 294 296 298 300 302 305 307 309 311 313 314 315 315 316 317 318 319 319 320 322 323 323 324 324 325 326 327 327 327 327 328 328 328 329 331
276 277 278 281 284 286 289 291 293 295 297 300 302 304 307 308 310 312 313 314 315 316 317 318 319 320 321 322 323 323 323 324 325 326 327 328 328 328 328 328 328 328 330
278 279 281 284 286 288 290 291 293 295 297 299 301 303 306 307 309 311 312 313 314 315 317 318 319 320 321 322 322 322 323 324 325 326 328 328 328 329 329 329 328 328 328
284 286 286 287 289 290 291 292 294 295 297 298 300 303 305 306 308 310 311 312 314 315 316 318 319 320 321 321 322 322 323 324 325 327 328 329 329 329 330 330 329 327 327
289 289 289 290 292 292 292 292 293 295 297 298 300 302 304 305 307 310 311 312 314 315 316 317 319 320 320 321 321 322 322 323 325 327 329 329 329 330 330 330 329 328 327
294 294 294 295 295 295 295 295 295 296 297 299 300 302 303 305 308 310 311 313 314 315 316 317 318 320 320 320 321 322 322 323 325 328 329 330 330 331 331 331 330 329 327
297 297 298 298 298 298 297 297 297 298 298 299 300 302 304 306 308 310 311 312 313 315 316 317 318 319 319 320 321 321 322 323 325 328 330 330 331 331 332 332 331 330 328
300 300 300 300 299 299 299 298 298 298 299 300 301 303 304 306 308 309 310 312 313 315 316 317 317 317 319 319 320 321 322 323 326 328 330 331 331 332 332 333 333 332 330
300 301 301 301 300 300 300 299 300 300 300 301 303 304 305 307 308 309 310 312 314 315 316 316 316 317 318 319 320 321 322 324 326 329 331 331 332 333 334 334 334 333 331
300 301 301 301 300 300 300 300 301 301 302 303 305 305 306 308 309 309 310 312 314 315 315 315 316 317 318 319 320 322 323 324 326 329 331 332 333 333 334 335 336 334 332
301 301 301 301 301 301 300 301 302 302 303 304 305 307 308 308 309 310 310 311 312 314 314 315 316 317 317 319 321 322 323 324 327 330 332 333 334 334 335 336 337 336 334
301 301 301 301 302 302 302 303 303 303 304 305 306 307 308 309 309 310 311 311 312 313 314 315 317 317 317 319 321 322 323 324 327 330 332 333 334 335 335 337 339 338 335
298 298 299 301 302 303 303 303 304 305 305 306 308 309 310 311 312 312 312 312 312 313 314 316 317 318 318 319 321 322 323 325 327 330 332 333 334 336 337 338 340 340 337
299 299 300 302 303 303 304 304 305 306 308 309 310 311 312 312 313 313 313 313 314 315 315 316 318 318 319 319 321 322 323 325 327 330 332 333 335 337 338 339 340 340 339
300 300 302 304 305 305 305 305 306 307 309 310 311 312 312 313 313 314 314 315 315 315 316 316 317 318 320 320 321 322 323 325 328 331 333 334 336 338 339 340 341 341 341
301 302 303 305 306 306 306 306 307 308 310 311 311 311 311 312 313 313 314 314 314 315 315 316 317 318 319 320 321 322 323 325 328 331 333 335 336 338 340 341 342 343 344
301 302 303 305 306 307 307 307 309 311 312 312 311 311 311 311 311 312 312 313 313 313 314 315 316 317 319 320 321 322 322 325 328 331 333 335 337 339 341 342 344 345 346
302 302 303 304 305 306 307 307 309 310 311 311 311 310 310 310 310 310 310 311 311 311 312 313 314 316 317 319 320 321 322 324 328 331 333 335 337 340 341 343 345 346 347
303 303 303 303 304 305 306 307 308 308 308 309 309 309 308 308 308 308 307 308 308 309 309 310 312 313 315 316 318 319 321 323 328 331 333 335 338 340 342 344 346 347 348
Height
5834 5832 5829 5827 5825 5822 5818 5815 5811 5806 5802 5797 5793 5788 5782 5776 5770 5764 5757 5750 5742 5735 5727 5719 5710 5702 5694 5685 5677 5667 5657 5647 5637 5627 5617 5603 5584 5564 5544 5523 5503 5483 5465
5829 5827 5824 5822 5819 5816 5812 5808 5804 5799 5795 5790 5785 5780 5774 5768 5762 5755 5747 5740 5732 5724 5716 5708 5699 5690 5682 5673 5663 5653 5643 5631 5619 5608 5597 5586 5572 5551 5528 5504 5482 5462 5444
5823 5821 5818 5816 5813 5809 5805 5801 5797 5792 5787 5782 5777 5772 5766 5759 5752 5745 5738 5730 5722 5714 5705 5696 5687 5678 5669 5659 5649 5639 5628 5615 5601 5587 5573 5559 5546 5532 5515 5491 5467 5446 5428
5817 5814 5812 5809 5806 5802 5798 5794 5789 5784 5779 5774 5769 5763 5757 5750 5743 5736 5728 5720 5711 5703 5694 5685 5675 5666 5656 5646 5635 5624 5612 5599 5585 5569 5552 5535 5517 5502 5492 5478 5455 5434 5414
5810 5808 5805 5801 5798 5794 5790 5785 5781 5776 5771 5765 5760 5754 5748 5741 5733 5725 5717 5709 5700 5691 5682 5673 5663 5653 5643 5633 5621 5609 5596 5583 5568 5553 5535 5517 5498 5478 5462 5453 5441 5423 5402
5803 5800 5796 5793 5789 5785 5781 5776 5772 5767 5762 5756 5750 5744 5737 5730 5722 5714 5706 5697 5689 5680 5670 5661 5651 5641 5630 5619 5607 5594 5581 5567 5552 5535 5518 5500 5481 5463 5444 5429 5419 5407 5392
5794 5791 5787 5783 5779 5775 5771 5767 5762 5757 5751 5746 5740 5733 5726 5719 5711 5703 5694 5686 5677 5668 5658 5648 5638 5627 5617 5605 5593 5580 5566 5552 5536 5520 5502 5484 5465 5447 5429 5412 5401 5391 5380
5783 5780 5776 5772 5769 5765 5761 5757 5752 5746 5741 5735 5728 5722 5715 5707 5699 5691 5683 5673 5664 5655 5645 5635 5625 5614 5603 5592 5579 5566 5552 5538 5522 5505 5488 5470 5451 5433 5416 5399 5384 5374 5367
5771 5768 5764 5761 5757 5754 5750 5745 5740 5735 5729 5723 5717 5710 5703 5695 5687 5679 5670 5661 5652 5642 5632 5622 5612 5601 5590 5578 5566 5553 5539 5524 5508 5492 5475 5457 5439 5422 5404 5388 5371 5358 5349
5760 5756 5752 5749 5745 5742 5738 5733 5728 5722 5717 5711 5704 5698 5691 5683 5675 5666 5657 5648 5639 5629 5619 5609 5598 5588 5576 5565 5553 5540 5526 5511 5495 5479 5462 5445 5428 5411 5395 5379 5364 5349 5336
5751 5747 5743 5739 5734 5730 5726 5721 5715 5710 5704 5698 5692 5686 5678 5670 5662 5654 5645 5635 5626 5616 5606 5596 5585 5575 5564 5552 5540 5527 5513 5499 5483 5467 5451 5434 5417 5401 5385 5370 5356 5342 5328
5741 5737 5733 5728 5724 5719 5714 5709 5703 5698 5692 5686 5679 5673 5665 5657 5649 5641 5632 5622 5613 5603 5593 5583 5573 5562 5551 5539 5527 5514 5501 5487 5472 5456 5440 5423 5407 5392 5376 5362 5347 5334 5321
5731 5726 5722 5717 5712 5707 5702 5697 5691 5685 5679 5673 5666 5659 5651 5644 5636 5627 5618 5609 5600 5590 5580 5571 5560 5550 5539 5527 5515 5503 5490 5475 5460 5445 5430 5414 5398 5383 5368 5354 5339 5326 5314
5719 5715 5710 5705 5700 5695 5690 5684 5678 5672 5666 5659 5652 5645 5638 5630 5622 5614 5605 5596 5586 5577 5567 5558 5548 5538 5527 5516 5504 5492 5479 5464 5449 5434 5419 5404 5389 5374 5360 5347 5333 5319 5307
5706 5702 5697 5692 5687 5682 5677 5671 5665 5658 5651 5645 5638 5631 5623 5615 5607 5599 5590 5582 5573 5564 5555 5545 5536 5526 5515 5504 5492 5480 5468 5454 5439 5425 5410 5395 5380 5365 5351 5337 5323 5310 5298
5694 5689 5684 5679 5674 5669 5663 5657 5651 5644 5637 5630 5624 5616 5608 5601 5593 5585 5576 5568 5560 5551 5542 5533 5524 5514 5504 5493 5481 5470 5458 5445 5431 5416 5402 5387 5372 5358 5344 5330 5316 5302 5290
5681 5676 5671 5666 5661 5655 5648 5642 5636 5629 5622 5616 5609 5601 5593 5586 5578 5570 5563 5555 5547 5539 5530 5521 5512 5503 5492 5481 5470 5459 5448 5435 5421 5407 5393 5380 5365 5351 5338 5325 5311 5298 5285
5667 5662 5657 5652 5646 5640 5633 5627 5620 5614 5607 5601 5594 5586 5579 5571 5564 5556 5549 5542 5534 5527 5518 5510 5501 5491 5481 5471 5460 5449 5437 5425 5411 5398 5385 5372 5359 5344 5332 5320 5307 5293 5281
5653 5647 5641 5636 5631 5624 5617 5611 5605 5598 5592 5585 5579 5572 5564 5557 5550 5543 5536 5529 5522 5515 5507 5498 5490 5481 5471 5461 5450 5439 5428 5416 5403 5390 5377 5365 5352 5340 5327 5315 5302 5289 5277
5640 5634 5627 5622 5616 5609 5602 5596 5590 5583 5577 5571 5565 5558 5551 5543 5537 5530 5524 5517 5511 5503 5496 5487 5479 5470 5461 5450 5440 5430 5420 5408 5396 5383 5370 5358 5346 5333 5320 5308 5296 5284 5274
5626 5619 5613 5607 5601 5594 5587 5581 5576 5570 5564 5558 5552 5545 5538 5531 5525 5519 5513 5506 5499 5492 5485 5477 5469 5460 5451 5441 5431 5421 5411 5400 5388 5376 5364 5352 5340 5327 5315 5303 5291 5279 5269
5610 5604 5598 5593 5587 5580 5574 5569 5563 5557 5552 5546 5540 5533 5527 5520 5513 5507 5502 5495 5488 5481 5474 5466 5458 5449 5441 5432 5422 5412 5403 5393 5381 5370 5358 5346 5335 5323 5311 5300 5288 5276 5266
5597 5591 5585 5581 5575 5568 5562 5556 5551 5546 5540 5534 5528 5522 5516 5509 5503 5497 5491 5484 5478 5471 5463 5456 5448 5439 5431 5423 5413 5404 5395 5385 5374 5363 5352 5341 5330 5319 5308 5296 5285 5274 5263
5584 5579 5574 5569 5564 5557 5551 5545 5540 5534 5529 5523 5517 5511 5505 5499 5492 5486 5480 5473 5467 5460 5453 5445 5438 5430 5422 5414 5405 5396 5387 5377 5367 5356 5346 5335 5325 5314 5304 5293 5282 5271 5261
5572 5567 5562 5557 5552 5547 5541 5534 5529 5523 5517 5511 5505 5499 5493 5487 5481 5475 5468 5462 5456 5449 5442 5435 5428 5420 5413 5405 5397 5389 5380 5371 5361 5351 5341 5331 5321 5311 5300 5289 5279 5269 5260
5560 5556 5551 5546 5540 5535 5529 5523 5517 5511 5505 5499 5493 5487 5481 5474 5468 5462 5456 5450 5444 5437 5431 5424 5418 5411 5404 5396 5389 5381 5373 5364 5355 5345 5336 5327 5317 5308 5298 5288 5278 5268 5259